This demonstration page uses our WeatherBlox Daily Observations layout. Learn more.

Left ArrowRight Arrow

Hourly Observations for April 11, 2015

Temp ( °F °C ) Dew Point ( °F °C ) Humidity (%) Winds ( mph kmh ) Pressure ( in mb ) Visibility ( mi km ) Precip ( " mm )
12:15 am 00:15 Clear 48 8.7 30 -0.9 51 51 S 10 17 30.06 1018 10 16 N/A
12:35 am 00:35 Clear 48 9.1 30 -1.2 49 49 S 12 19 30.06 1018 10 16 N/A
12:55 am 00:55 Clear 47 8.2 30 -1.2 52 52 S 9 15 30.06 1018 10 16 N/A
1:15 am 01:15 Clear 46 7.5 31 -0.8 56 56 SSE 9 15 30.06 1018 10 16 N/A
1:35 am 01:35 Clear 44 6.8 31 -0.5 60 60 S 8 13 30.09 1019 10 16 N/A
1:55 am 01:55 Clear 46 8 30 -1.2 53 53 SSE 10 17 30.06 1018 10 16 N/A
2:15 am 02:15 Clear 45 7.1 30 -1.1 56 56 SSE 10 17 30.09 1019 10 16 N/A
2:35 am 02:35 Clear 44 6.4 30 -1 59 59 SSE 8 13 30.09 1019 10 16 N/A
2:55 am 02:55 Clear 42 5.4 31 -0.6 66 66 SSE 6 9 30.09 1019 10 16 N/A
3:15 am 03:15 Clear 43 6.1 31 -0.8 62 62 SE 6 9 30.09 1019 10 16 N/A
3:35 am 03:35 Clear 45 7.2 29 -1.5 54 54 E 7 11 30.09 1019 10 16 N/A
3:55 am 03:55 Clear 44 6.4 30 -1.2 59 59 E 6 9 30.09 1019 10 16 N/A
4:15 am 04:15 Clear 43 6.3 30 -1.3 59 59 SE 6 9 30.09 1019 10 16 N/A
4:35 am 04:35 Clear 43 6.3 29 -1.5 58 58 ESE 6 9 30.09 1019 10 16 N/A
4:55 am 04:55 Clear 41 5 30 -1 66 66 ESE 6 9 30.09 1019 10 16 N/A
5:15 am 05:15 Clear 42 5.6 31 -0.6 65 65 ESE 8 13 30.09 1019 10 16 N/A
5:35 am 05:35 Clear 40 4.6 31 -0.5 70 70 ESE 6 9 30.09 1019 10 16 N/A
5:55 am 05:55 Clear 38 3.3 31 -0.6 76 76 ESE 6 9 30.12 1020 10 16 N/A
6:15 am 06:15 Clear 38 3.2 31 -0.5 77 77 E 6 9 30.12 1020 10 16 N/A
6:35 am 06:35 Clear 36 2 31 -0.5 84 84 E 7 11 30.12 1020 10 16 N/A
6:55 am 06:55 Clear 36 2.1 31 -0.3 84 84 E 6 9 30.12 1020 10 16 N/A
7:15 am 07:15 Sunny 36 2.1 31 -0.3 84 84 E 6 9 30.12 1020 10 16 N/A
7:35 am 07:35 Sunny 39 3.9 33 0.3 78 78 ESE 7 11 30.09 1019 10 16 N/A
7:55 am 07:55 Sunny 42 5.6 34 0.9 72 72 SSE 5 7 30.09 1019 10 16 N/A
8:15 am 08:15 Sunny 48 9 36 2.4 64 64 S 13 20 30.06 1018 10 16 N/A
8:35 am 08:35 Sunny 50 10.1 37 2.5 60 60 S 14 22 30.06 1018 10 16 N/A
8:55 am 08:55 Sunny 53 11.5 37 2.6 55 55 S 17 28 30.03 1017 10 16 N/A
9:15 am 09:15 Sunny 54 12.4 38 3.1 53 53 S 14 22 30.03 1017 10 16 N/A
9:35 am 09:35 Sunny 56 13.3 38 3.5 52 52 S 17 28 30.03 1017 10 16 N/A
9:55 am 09:55 Sunny 58 14.2 39 4.1 51 51 S 18 30 30.00 1016 10 16 N/A
10:15 am 10:15 Sunny 59 14.8 39 3.8 48 48 S 15 24 30.00 1016 10 16 N/A
10:35 am 10:35 Sunny 60 15.7 40 4.2 47 47 SSW 17 28 29.97 1015 10 16 N/A
10:55 am 10:55 Sunny 61 16.3 40 4.4 45 45 S 18 30 29.97 1015 10 16 N/A
11:15 am 11:15 Sunny 63 17.2 40 4.6 43 43 S 18 30 29.94 1014 10 16 N/A
11:35 am 11:35 Sunny 65 18.1 40 4.5 41 41 S 17 28 29.91 1013 10 16 N/A
11:55 am 11:55 Sunny 66 19 40 4.3 38 38 S 22 35 29.91 1013 10 16 N/A
12:15 pm 12:15 Sunny 67 19.3 40 4.2 37 37 S 21 33 29.91 1013 10 16 N/A
12:35 pm 12:35 Sunny 67 19.7 39 4 36 36 S 20 31 29.88 1012 10 16 N/A
12:55 pm 12:55 Sunny 70 21 40 4.2 33 33 S 22 35 29.85 1011 10 16 N/A
1:15 pm 13:15 Sunny 70 21 39 4.1 33 33 S 24 39 29.85 1011 10 16 N/A
1:35 pm 13:35 Sunny 70 21.3 40 4.6 34 34 S 25 41 29.85 1011 10 16 N/A
1:55 pm 13:55 Sunny 71 21.5 40 4.5 33 33 S 28 44 29.83 1010 10 16 N/A
2:15 pm 14:15 Sunny 72 22 41 5.1 33 33 S 24 39 29.83 1010 10 16 N/A
2:35 pm 14:35 Sunny 72 22.2 42 5.3 33 33 S 21 33 29.83 1010 10 16 N/A
2:55 pm 14:55 Sunny 72 22 41 5 33 33 S 26 43 29.80 1009 10 16 N/A
3:15 pm 15:15 Sunny 72 22.2 42 5.4 34 34 S 24 39 29.80 1009 10 16 N/A
3:35 pm 15:35 Sunny 73 22.5 41 5.2 33 33 S 25 41 29.74 1007 10 16 N/A
3:55 pm 15:55 Sunny 73 22.5 41 5.2 33 33 S 21 33 29.74 1007 10 16 N/A
4:15 pm 16:15 Sunny 73 23 43 5.9 33 33 S 21 33 29.71 1006 10 16 N/A
4:35 pm 16:35 Sunny 72 22.4 42 5.8 34 34 S 22 35 29.71 1006 10 16 N/A
4:55 pm 16:55 Sunny 72 22.2 43 6 35 35 S 22 35 29.71 1006 10 16 N/A
5:15 pm 17:15 Sunny 73 23 43 6.1 34 34 S 25 41 29.68 1005 10 16 N/A
5:35 pm 17:35 Sunny 74 23.2 43 6.3 34 34 SSE 22 35 29.68 1005 10 16 N/A
5:55 pm 17:55 Sunny 73 23 45 7.2 36 36 SSE 24 39 29.68 1005 10 16 N/A
6:15 pm 18:15 Sunny 73 22.7 46 7.6 38 38 S 22 35 29.68 1005 10 16 N/A
6:35 pm 18:35 Sunny 72 22.4 47 8.5 41 41 S 28 44 29.68 1005 10 16 N/A
6:55 pm 18:55 Sunny 71 21.8 47 8.2 42 42 S 22 35 29.65 1004 10 16 N/A
7:15 pm 19:15 Sunny 70 21.2 47 8.6 45 45 S 25 41 29.65 1004 10 16 N/A
7:35 pm 19:35 Sunny 69 20.4 47 8.6 47 47 S 25 41 29.68 1005 10 16 N/A
7:55 pm 19:55 Sunny 66 19.1 47 8.5 50 50 S 22 35 29.68 1005 10 16 N/A
8:15 pm 20:15 Clear 64 17.7 47 8.4 55 55 S 20 31 29.71 1006 10 16 N/A
8:35 pm 20:35 Clear 63 17 47 8.6 58 58 S 17 28 29.74 1007 10 16 N/A
8:55 pm 20:55 Clear 62 16.5 48 8.8 61 61 S 16 26 29.74 1007 10 16 N/A
9:15 pm 21:15 Clear 60 15.8 48 9 64 64 S 17 28 29.74 1007 10 16 N/A
9:35 pm 21:35 Clear 60 15.7 48 9 65 65 SSE 16 26 29.77 1008 10 16 N/A
9:55 pm 21:55 Clear 60 15.5 47 8.6 64 64 SSE 17 28 29.74 1007 10 16 N/A
10:15 pm 22:15 Clear 59 15 47 8.6 66 66 SSE 16 26 29.74 1007 10 16 N/A
10:35 pm 22:35 Clear 59 15 48 8.7 66 66 SSE 15 24 29.77 1008 10 16 N/A
10:55 pm 22:55 Clear 59 15 48 9.1 68 68 S 16 26 29.77 1008 10 16 N/A
11:15 pm 23:15 Clear 58 14.6 49 9.2 70 70 S 16 26 29.77 1008 10 16 N/A
11:35 pm 23:35 Clear 58 14.4 49 9.2 71 71 S 17 28 29.77 1008 10 16 N/A
11:55 pm 23:55 Clear 57 14 48 9 72 72 S 18 30 29.77 1008 10 16 N/A

Powered by AerisWeather